Tracking 28125 objects as of 3-Oct-2023
HD Live streaming from Space Station
objects crossing your sky now

FENGYUN 1D

Track FENGYUN 1D now!
10-day predictions
FENGYUN 1D is classified as:


NORAD ID: 27431
Int'l Code: 2002-024B
Perigee: 855.2 km
Apogee: 878.6 km
Inclination: 99.1 °
Period: 102.1 minutes
Semi major axis: 7237 km
RCS: 2.2279 m2 (large)
Launch date: May 15, 2002
Source: People's Republic of China (PRC)
Launch site: Taiyaun Space Center, China (TSC)

Polar-orbiting satellite; carries Multichannel Visible and Infrared Scan Radiometer (MVISR); means "wind and cloud."
Your satellite tracking list
Your tracking list is empty




NASA's NSSDC Master Catalog

Two Line Element Set (TLE):
1 27431U 02024B   23275.85766437  .00000134  00000-0  10198-3 0  9990
2 27431  99.0907 307.3238 0016190 135.4360 224.8115 14.09893653100279
Source of the keplerian elements: AFSPC